TimeMDT,TemperatureF,Dew PointF,Humidity,Sea Level PressureIn,VisibilityMPH,Wind Direction,Wind SpeedMPH,Gust SpeedMPH,PrecipitationIn,Events,Conditions,WindDirDegrees,DateUTC
12:53 AM,54.0,45.0,72,30.08,10.0,East,9.2,-,N/A,,Mostly Cloudy,100,2013-08-08 06:53:00
1:53 AM,53.1,45.0,74,30.08,10.0,East,11.5,-,N/A,,Mostly Cloudy,80,2013-08-08 07:53:00
2:53 AM,51.1,44.1,77,30.10,10.0,Calm,Calm,-,N/A,,Partly Cloudy,0,2013-08-08 08:53:00
3:53 AM,50.0,45.0,83,30.10,10.0,East,5.8,-,N/A,,Scattered Clouds,90,2013-08-08 09:53:00
4:53 AM,51.1,45.0,80,30.08,10.0,North,-9999.0,-,N/A,,Scattered Clouds,0,2013-08-08 10:53:00
5:53 AM,48.9,45.0,86,30.09,10.0,ENE,8.1,-,N/A,,Clear,70,2013-08-08 11:53:00
6:53 AM,52.0,46.0,80,30.10,10.0,East,9.2,-,N/A,,Clear,90,2013-08-08 12:53:00
7:53 AM,57.9,46.9,67,30.11,10.0,East,6.9,-,N/A,,Clear,100,2013-08-08 13:53:00
8:53 AM,63.0,46.9,56,30.10,10.0,SE,6.9,-,N/A,,Clear,130,2013-08-08 14:53:00
9:53 AM,66.0,44.1,45,30.10,10.0,SSE,9.2,-,N/A,,Partly Cloudy,160,2013-08-08 15:53:00
10:53 AM,70.0,44.1,39,30.10,10.0,Variable,4.6,-,N/A,,Overcast,0,2013-08-08 16:53:00
11:53 AM,72.0,44.1,37,30.09,10.0,East,9.2,-,N/A,,Mostly Cloudy,100,2013-08-08 17:53:00
12:53 PM,73.9,44.1,34,30.09,10.0,Variable,4.6,-,N/A,,Clear,0,2013-08-08 18:53:00
1:53 PM,75.9,43.0,31,30.07,10.0,Calm,Calm,-,N/A,,Clear,0,2013-08-08 19:53:00
2:53 PM,75.9,44.1,32,30.07,10.0,North,9.2,-,N/A,,Partly Cloudy,10,2013-08-08 20:53:00
3:53 PM,75.9,43.0,31,30.08,10.0,NNE,5.8,-,N/A,,Clear,30,2013-08-08 21:53:00
4:53 PM,75.9,42.1,30,30.07,10.0,NE,8.1,17.3,N/A,,Partly Cloudy,50,2013-08-08 22:53:00
5:53 PM,75.9,43.0,31,30.07,10.0,NE,9.2,-,N/A,,Scattered Clouds,50,2013-08-08 23:53:00
6:53 PM,73.9,44.1,34,30.08,10.0,East,6.9,-,N/A,,Partly Cloudy,80,2013-08-09 00:53:00
7:53 PM,70.0,50.0,49,30.09,10.0,ENE,10.4,-,N/A,,Partly Cloudy,70,2013-08-09 01:53:00
8:53 PM,64.0,48.9,58,30.11,10.0,ENE,16.1,-,N/A,,Clear,60,2013-08-09 02:53:00
9:53 PM,61.0,48.0,62,30.13,10.0,ENE,12.7,-,N/A,,Partly Cloudy,70,2013-08-09 03:53:00
10:53 PM,61.0,46.9,60,30.14,10.0,ENE,18.4,24.2,N/A,,Mostly Cloudy,60,2013-08-09 04:53:00
11:53 PM,60.1,48.0,64,30.16,10.0,ENE,16.1,-,N/A,,Overcast,70,2013-08-09 05:53:00